Location: Krakow
(50.0830°N, 19.9170°E)
Time: 07:45:01
(UTC+02:00)

Tiros 1 despin weight - Pass Details

Date: 23 March 2026
Orbit: 555 x 592 km, 48.2° (Epoch: 18 April)

Event Time Altitude Azimuth Distance (km) Brightness Sun altitude
Rises 07:43:38 0° 278° (W) 2,811 ? 19.1°
Reaches altitude 10° 07:46:31 10° 260° (W) 1,901 ? 19.5°
Maximum altitude 07:49:25 18° 217° (SW) 1,459 ? 19.9°
Drops below altitude 10° 07:52:18 10° 175° (S) 1,879 ? 20.4°
Sets 07:55:08 0° 156° (SSE) 2,765 ? 20.8°
